When you browse on this site, cookies collect data to enhance your experience and personalize the content and advertising you see.
Visit our Privacy Policy to learn more. By continuing to use the site, you agree to this use of cookies and data.
  • In Austria
  • List of Countries
  • For 7 days
  • Water Temperature
  • Weather Map
  • News
  • Weather Widgets
  • user-avatar
    Login

    Hourly Weather Suesca

    Today, 25 January, Saturday

    Time Temperature Precipitation Wind Pressure Humidity
    00:00 +12°C° 0 mm 0 mps 554 mmHg 97%
    01:00 +12°C° 0 mm 0 mps 554 mmHg 97%
    02:00 +12°C° 0 mm 0 mps 554 mmHg 97%
    03:00 +12°C° 0 mm 0 mps 554 mmHg 97%
    04:00 +12°C° 0 mm 0 mps 553 mmHg 96%
    05:00 +12°C° 0 mm 0 mps 554 mmHg 96%
    06:00 +12°C° 0 mm 0 mps 554 mmHg 95%
    07:00 +12°C° 0 mm 0 mps 555 mmHg 94%
    08:00 +14°C° 0.1 mm 0 mps 556 mmHg 88%
    09:00 +16°C° 0.1 mm 0 mps 557 mmHg 81%
    10:00 +18°C° 0.1 mm 0 mps 559 mmHg 75%
    11:00 +20°C° 1.1 mm 1 mps 558 mmHg 77%
    12:00 +19°C° 1.1 mm 1 mps 557 mmHg 79%
    13:00 +19°C° 1.1 mm 1 mps 556 mmHg 81%
    14:00 +19°C° 1.4 mm 1 mps 556 mmHg 83%
    15:00 +18°C° 1.4 mm 1 mps 555 mmHg 86%
    16:00 +18°C° 1.4 mm 1 mps 554 mmHg 88%
    17:00 +16°C° 0.6 mm 1 mps 554 mmHg 91%
    18:00 +15°C° 0.6 mm 1 mps 554 mmHg 94%
    19:00 +13°C° 0.6 mm 0 mps 553 mmHg 97%
    20:00 +13°C° 0.2 mm 0 mps 554 mmHg 97%
    21:00 +13°C° 0.2 mm 0 mps 555 mmHg 97%
    22:00 +13°C° 0.2 mm 0 mps 555 mmHg 97%
    23:00 +13°C° 0.1 mm 0 mps 555 mmHg 97%

    Tomorrow, 26 January, Sunday

    Time Temperature Precipitation Wind Pressure Humidity
    00:00 +13°C° 0.1 mm 0 mps 554 mmHg 97%
    01:00 +12°C° 0.1 mm 0 mps 554 mmHg 98%
    02:00 +12°C° 0.1 mm 0 mps 554 mmHg 97%
    03:00 +12°C° 0.1 mm 0 mps 554 mmHg 97%
    04:00 +12°C° 0.1 mm 0 mps 553 mmHg 97%
    05:00 +12°C° 0.1 mm 0 mps 554 mmHg 97%
    06:00 +12°C° 0.1 mm 0 mps 554 mmHg 96%
    07:00 +12°C° 0.1 mm 0 mps 555 mmHg 95%
    08:00 +14°C° 0.1 mm 0 mps 555 mmHg 90%
    09:00 +16°C° 0.1 mm 1 mps 556 mmHg 86%
    10:00 +18°C° 0.1 mm 1 mps 557 mmHg 81%
    11:00 +18°C° 0.5 mm 1 mps 557 mmHg 80%
    12:00 +19°C° 0.5 mm 1 mps 557 mmHg 78%
    13:00 +19°C° 0.5 mm 1 mps 556 mmHg 76%
    14:00 +19°C° 1.3 mm 1 mps 555 mmHg 80%
    15:00 +18°C° 1.3 mm 1 mps 555 mmHg 84%
    16:00 +16°C° 1.3 mm 1 mps 554 mmHg 88%
    17:00 +15°C° 0.9 mm 1 mps 554 mmHg 91%
    18:00 +15°C° 0.9 mm 1 mps 554 mmHg 94%
    19:00 +13°C° 0.9 mm 0 mps 554 mmHg 97%
    20:00 +13°C° 0.5 mm 0 mps 554 mmHg 97%
    21:00 +12°C° 0.5 mm 0 mps 555 mmHg 97%
    22:00 +12°C° 0.5 mm 0 mps 555 mmHg 97%
    23:00 +12°C° 0.6 mm 0 mps 555 mmHg 97%

    Day after tomorrow, 27 January, Monday

    Time Temperature Precipitation Wind Pressure Humidity
    00:00 +12°C° 0.6 mm 0 mps 554 mmHg 97%
    01:00 +12°C° 0.6 mm 0 mps 554 mmHg 97%
    02:00 +12°C° 0.4 mm 0 mps 554 mmHg 97%
    03:00 +11°C° 0.4 mm 0 mps 553 mmHg 97%
    04:00 +11°C° 0.4 mm 0 mps 553 mmHg 97%
    05:00 +11°C° 0.2 mm 0 mps 554 mmHg 96%
    06:00 +12°C° 0.2 mm 0 mps 554 mmHg 96%
    07:00 +12°C° 0.2 mm 0 mps 555 mmHg 95%
    08:00 +13°C° 0.3 mm 0 mps 556 mmHg 91%
    09:00 +15°C° 0.3 mm 1 mps 556 mmHg 87%
    10:00 +16°C° 0.3 mm 1 mps 557 mmHg 84%
    11:00 +18°C° 1 mm 1 mps 557 mmHg 82%
    12:00 +19°C° 1 mm 1 mps 557 mmHg 81%
    13:00 +19°C° 1 mm 1 mps 556 mmHg 79%
    14:00 +19°C° 1.6 mm 1 mps 556 mmHg 82%
    15:00 +18°C° 1.6 mm 1 mps 555 mmHg 84%
    16:00 +18°C° 1.6 mm 1 mps 554 mmHg 86%
    17:00 +15°C° 1.1 mm 1 mps 554 mmHg 89%
    18:00 +13°C° 1.1 mm 0 mps 554 mmHg 93%
    19:00 +12°C° 1.1 mm 0 mps 554 mmHg 96%
    20:00 +12°C° 0.2 mm 0 mps 554 mmHg 96%
    21:00 +12°C° 0.2 mm 0 mps 554 mmHg 96%
    22:00 +12°C° 0.2 mm 0 mps 554 mmHg 96%
    23:00 +11°C° 0 mm 0 mps 554 mmHg 96%

    28 January, Tuesday

    Time Temperature Precipitation Wind Pressure Humidity
    00:00 +11°C° 0 mm 0 mps 553 mmHg 96%
    01:00 +10°C° 0 mm 0 mps 553 mmHg 96%
    02:00 +10°C° 0 mm 0 mps 552 mmHg 96%
    03:00 +10°C° 0 mm 0 mps 552 mmHg 95%
    04:00 +10°C° 0 mm 0 mps 552 mmHg 95%
    05:00 +10°C° 0 mm 0 mps 553 mmHg 95%
    06:00 +10°C° 0 mm 0 mps 553 mmHg 94%
    07:00 +11°C° 0 mm 0 mps 554 mmHg 93%
    08:00 +13°C° 0 mm 0 mps 555 mmHg 85%
    09:00 +16°C° 0 mm 0 mps 557 mmHg 76%
    10:00 +18°C° 0 mm 0 mps 558 mmHg 68%
    11:00 +20°C° 0.1 mm 1 mps 558 mmHg 65%
    12:00 +21°C° 0.1 mm 1 mps 557 mmHg 62%
    13:00 +21°C° 0.1 mm 1 mps 557 mmHg 60%
    14:00 +20°C° 0.4 mm 1 mps 556 mmHg 66%
    15:00 +19°C° 0.4 mm 1 mps 555 mmHg 72%
    16:00 +19°C° 0.4 mm 1 mps 554 mmHg 78%
    17:00 +16°C° 0.4 mm 1 mps 554 mmHg 84%
    18:00 +14°C° 0.4 mm 0 mps 553 mmHg 90%
    19:00 +12°C° 0.4 mm 0 mps 553 mmHg 96%
    20:00 +12°C° 0.1 mm 0 mps 553 mmHg 96%
    21:00 +12°C° 0.1 mm 0 mps 554 mmHg 96%
    22:00 +12°C° 0.1 mm 0 mps 554 mmHg 96%
    23:00 +12°C° 0.1 mm 0 mps 554 mmHg 97%

    29 January, Wednesday

    Time Temperature Precipitation Wind Pressure Humidity
    00:00 +11°C° 0.1 mm 0 mps 553 mmHg 97%
    01:00 +11°C° 0.1 mm 0 mps 553 mmHg 97%
    02:00 +11°C° 0.1 mm 0 mps 553 mmHg 97%
    03:00 +11°C° 0.1 mm 0 mps 553 mmHg 97%
    04:00 +12°C° 0.1 mm 1 mps 552 mmHg 96%
    05:00 +11°C° 0 mm 0 mps 553 mmHg 95%
    06:00 +11°C° 0 mm 0 mps 553 mmHg 94%
    07:00 +11°C° 0 mm 0 mps 554 mmHg 92%
    08:00 +13°C° 0 mm 0 mps 555 mmHg 85%
    09:00 +15°C° 0 mm 0 mps 556 mmHg 77%
    10:00 +18°C° 0 mm 0 mps 558 mmHg 69%
    11:00 +18°C° 0.2 mm 0 mps 557 mmHg 67%
    12:00 +20°C° 0.2 mm 1 mps 557 mmHg 65%
    13:00 +20°C° 0.2 mm 1 mps 556 mmHg 64%
    14:00 +19°C° 0.8 mm 1 mps 555 mmHg 71%
    15:00 +18°C° 0.8 mm 1 mps 554 mmHg 78%
    16:00 +16°C° 0.8 mm 1 mps 553 mmHg 85%
    17:00 +15°C° 0.5 mm 1 mps 553 mmHg 89%
    18:00 +14°C° 0.5 mm 1 mps 553 mmHg 93%
    19:00 +12°C° 0.5 mm 0 mps 553 mmHg 96%
    20:00 +12°C° 0.1 mm 0 mps 553 mmHg 96%
    21:00 +12°C° 0.1 mm 0 mps 553 mmHg 97%
    22:00 +11°C° 0.1 mm 0 mps 553 mmHg 97%
    23:00 +11°C° 0.1 mm 0 mps 553 mmHg 97%

    30 January, Thursday

    Time Temperature Precipitation Wind Pressure Humidity
    00:00 +11°C° 0.1 mm 0 mps 553 mmHg 97%
    01:00 +11°C° 0.1 mm 0 mps 553 mmHg 97%
    02:00 +11°C° 0.1 mm 0 mps 553 mmHg 96%
    03:00 +11°C° 0.1 mm 0 mps 552 mmHg 96%
    04:00 +11°C° 0.1 mm 0 mps 552 mmHg 96%
    05:00 +11°C° 0 mm 0 mps 553 mmHg 95%
    06:00 +11°C° 0 mm 0 mps 553 mmHg 94%
    07:00 +11°C° 0 mm 0 mps 554 mmHg 92%
    08:00 +13°C° 0.1 mm 0 mps 555 mmHg 86%
    09:00 +16°C° 0.1 mm 1 mps 556 mmHg 80%
    10:00 +19°C° 0.1 mm 1 mps 557 mmHg 73%
    11:00 +19°C° 0.4 mm 1 mps 557 mmHg 72%
    12:00 +19°C° 0.4 mm 2 mps 557 mmHg 71%
    13:00 +19°C° 0.4 mm 2 mps 556 mmHg 69%
    14:00 +18°C° 0.9 mm 2 mps 555 mmHg 74%
    15:00 +18°C° 0.9 mm 1 mps 554 mmHg 79%
    16:00 +16°C° 0.9 mm 1 mps 554 mmHg 84%
    17:00 +15°C° 0.3 mm 1 mps 553 mmHg 88%
    18:00 +14°C° 0.3 mm 1 mps 553 mmHg 92%
    19:00 +12°C° 0.3 mm 1 mps 552 mmHg 96%
    20:00 +12°C° 0 mm 1 mps 552 mmHg 97%
    21:00 +11°C° 0 mm 1 mps 552 mmHg 97%
    22:00 +11°C° 0 mm 1 mps 552 mmHg 97%
    23:00 +10°C° 0 mm 1 mps 552 mmHg 97%
    Show more